Bradshaw AFB, HI

3:56 PM HST on November 16, 2019 (GMT -1000)
Bradshaw Army Air Field

Weather History for PHSF - September, 2019

Change the Weather History Date:

Wednesday, September 4, 2019

  Actual Average Record
Temperature  
Mean Temperature 64 °F -  
Max Temperature 75 °F 70 °F 77 °F (2018)
Min Temperature 53 °F 51 °F 43 °F (2017)
Degree Days  
Heating Degree Days 1    
Growing Degree Days 14 (Base 50)    
Moisture  
Dew Point 52 °F    
Average Humidity 63    
Maximum Humidity 83    
Minimum Humidity 45    
Precipitation  
Precipitation 0.00 in - - ()
Sea Level Pressure  
Sea Level Pressure 29.95 in    
Wind  
Wind Speed 10 mph (SSE)    
Max Wind Speed 20 mph    
Max Gust Speed 29 mph    
Visibility 10 miles    
Events      
Averages and records for this station are not official NWS values.
T = Trace of Precipitation, MM = Missing Value Source: NWS Daily Summary

Daily Weather History Graph

Daily Weather History Graph

Search for Another Location

Airport or City:

Astronomy

Sep. 04, 2019 Rise Set
Actual Time 6:07 AM HST 6:34 PM HST
Civil Twilight 5:45 AM HST 6:56 PM HST
Nautical Twilight 5:19 AM HST 7:22 PM HST
Astronomical Twilight 4:52 AM HST 7:49 PM HST
Moon 11:33 AM HST (9/4) 11:07 PM HST (9/4)
Length of Visible Light 13h 11m
Length of Day
12h 27m
Waxing Crescent, 37% of the Moon is Illuminated
Sep 4
Waxing Crescent
Sep 5
First Quarter
Sep 13
Full
Sep 21
Last Quarter
Sep 28
New

Hourly Weather History & Observations

Time (HST) Temp. Dew Point Humidity Pressure Visibility Wind Dir Wind Speed Gust Speed Precip Events Conditions
12:56 AM 53.6 °F 47.3 °F 79% 29.96 in 10.0 mi Calm Calm - N/A   Clear
1:56 AM 55.2 °F 39.9 °F 56% 29.93 in 10.0 mi SE 5.8 mph - N/A   Clear
2:56 AM 57.9 °F 40.3 °F 52% 29.93 in 10.0 mi ESE 9.2 mph - N/A   Clear
3:56 AM 59.9 °F 46.0 °F 60% 30.28 in 10.0 mi SE 11.5 mph 18.4 mph N/A   Clear
4:56 AM 59.9 °F 47.3 °F 63% 29.94 in 10.0 mi SSE 9.2 mph - N/A   Clear
5:56 AM 58.5 °F 48.6 °F 70% 29.94 in 10.0 mi South 6.9 mph - N/A   Clear
6:56 AM 59.5 °F 52.0 °F 76% 29.98 in 10.0 mi SSE 11.5 mph - N/A   Clear
7:56 AM 61.5 °F 52.7 °F 73% 29.98 in 10.0 mi South 13.8 mph 19.6 mph N/A   Clear
8:45 AM 68.0 °F 55.4 °F 64% 29.92 in 10.0 mi SE 15.0 mph 28.8 mph N/A   Partly Cloudy
8:47 AM 69.8 °F 55.4 °F 60% 29.91 in 10.0 mi East 11.5 mph 28.8 mph N/A   Partly Cloudy
8:56 AM 66.0 °F 53.8 °F 65% 29.95 in 10.0 mi WNW 11.5 mph 17.3 mph N/A   Partly Cloudy
9:56 AM 72.5 °F 49.8 °F 45% 29.95 in 10.0 mi WSW 4.6 mph - N/A   Partly Cloudy
10:56 AM 71.8 °F 56.7 °F 59% 29.93 in 10.0 mi South 16.1 mph 24.2 mph N/A   Clear
11:56 AM 72.9 °F 56.3 °F 56% 29.90 in 10.0 mi SSE 19.6 mph 28.8 mph N/A   Clear
12:56 PM 75.4 °F 56.1 °F 51% 29.90 in 10.0 mi South 16.1 mph - N/A   Partly Cloudy
1:56 PM 70.9 °F 55.0 °F 57% 29.90 in 10.0 mi SSE 19.6 mph 28.8 mph N/A   Partly Cloudy
2:56 PM 70.9 °F 54.7 °F 56% 29.89 in 10.0 mi SSE 16.1 mph 26.5 mph N/A   Scattered Clouds
3:56 PM 70.3 °F 53.2 °F 55% 29.89 in 10.0 mi SSE 16.1 mph 21.9 mph N/A   Mostly Cloudy
4:56 PM 66.6 °F 56.5 °F 70% 29.91 in 10.0 mi South 13.8 mph 21.9 mph N/A   Mostly Cloudy
5:56 PM 66.0 °F 51.8 °F 60% 29.93 in 10.0 mi South 17.3 mph 25.3 mph N/A   Mostly Cloudy
6:56 PM 64.8 °F 52.3 °F 64% 29.94 in 10.0 mi South 13.8 mph - N/A   Partly Cloudy
7:56 PM 65.1 °F 52.0 °F 62% 29.96 in 10.0 mi SE 13.8 mph 19.6 mph N/A   Mostly Cloudy
8:56 PM 63.7 °F 51.6 °F 65% 29.97 in 10.0 mi SE 11.5 mph - N/A   Partly Cloudy
9:56 PM 65.5 °F 50.7 °F 59% 29.94 in 10.0 mi SSE 5.8 mph - N/A   Mostly Cloudy
10:56 PM 61.2 °F 53.1 °F 75% 29.96 in 10.0 mi South 12.7 mph 19.6 mph N/A   Mostly Cloudy
11:56 PM 59.0 °F 53.8 °F 83% 29.96 in 10.0 mi South 9.2 mph - N/A   Mostly Cloudy